DMC3-FM3

Last updated on Thu Nov 21 2024 00:02:33 GMT+0000 (Coordinated Universal Time)

1 40717U 15032C 24325.58430475 .00001508 00000+0 18591-3 0 9992 2 40717 97.7350 202.2857 0009874 134.9470 225.2547 14.84308929504772
UTC large
Height (km)
Speed (km/s)
/
Latitude / Longitude
Inclination (degrees)
Orbital Period (minutes)
Azimuth
Elevation
Range (km)
Doppler Factor

Next 0 passes for location: London (51.5072 / 0.1276)

Sorry there are no passes over London.